Location: Unspecified
(0.0000°N, 0.0000°E)
Time: 01:57:09
(UTC+00:00)

Vanguard 2 - Pass Details

Date: 25 November 2019
Orbit: 553 x 2938 km, 32.9° (Epoch: 10 December)

Event Time Altitude Azimuth Distance (km) Brightness Sun altitude
Rises 05:36:23 0° 266° (W) 6,790 11.8 -2.4°
Reaches altitude 10° 05:42:18 10° 277° (W) 5,695 11.3 -1.1°
Maximum altitude 05:55:12 26° 326° (NNW) 3,959 10.7 2.0°
Drops below altitude 10° 06:05:17 10° 19° (NNE) 4,369 11.4 4.3°
Sets 06:09:08 0° 32° (NNE) 4,998 11.8 5.2°
